Temp
-8 -9 -9 -9 -9 -9 -8 -8 -9 -9 -9 -9 -9 -9 -9 -9 -9 -9 -9 -9 -9 -9 -9 -9 -9 -9 -9 -9 -9 -9 -9 -10 -10 -10 -10 -10 -10 -10 -9 -10 -9 -10 -9 -10 -10
-8 -8 -8 -8 -9 -9 -9 -9 -8 -8 -8 -8 -9 -9 -9 -9 -9 -9 -9 -9 -9 -9 -9 -9 -9 -9 -9 -10 -9 -10 -10 -10 -10 -10 -10 -10 -10 -10 -10 -10 -10 -10 -9 -10 -10
-9 -8 -8 -8 -8 -8 -8 -8 -9 -9 -9 -9 -8 -9 -9 -9 -9 -9 -9 -9 -9 -9 -9 -9 -9 -9 -10 -10 -10 -10 -10 -10 -10 -10 -10 -10 -10 -10 -10 -10 -10 -10 -10 -10 -10
-9 -9 -9 -9 -9 -9 -9 -9 -9 -9 -9 -9 -9 -9 -9 -9 -9 -9 -9 -9 -9 -9 -9 -9 -9 -9 -10 -9 -10 -9 -10 -9 -10 -10 -10 -10 -10 -10 -10 -11 -10 -10 -10 -10 -10
-9 -9 -9 -9 -9 -9 -9 -9 -9 -9 -9 -9 -9 -9 -9 -9 -10 -9 -9 -10 -10 -10 -10 -10 -10 -10 -10 -10 -10 -9 -10 -10 -9 -9 -10 -10 -10 -10 -10 -11 -10 -10 -10 -9 -10
-10 -10 -10 -10 -10 -10 -9 -9 -9 -9 -9 -9 -9 -9 -9 -9 -9 -10 -10 -10 -10 -10 -10 -10 -10 -10 -10 -10 -10 -10 -10 -10 -10 -10 -10 -10 -10 -10 -11 -10 -10 -10 -10 -10 -10
-10 -10 -10 -10 -10 -10 -10 -10 -9 -9 -9 -9 -9 -9 -9 -9 -9 -10 -10 -10 -10 -10 -10 -10 -11 -11 -11 -11 -10 -10 -10 -10 -10 -10 -10 -10 -10 -10 -11 -11 -10 -10 -10 -10 -10
-10 -10 -10 -10 -10 -10 -10 -10 -10 -10 -10 -9 -9 -9 -9 -10 -10 -10 -10 -10 -10 -10 -10 -11 -11 -11 -11 -11 -11 -11 -11 -10 -10 -10 -10 -11 -10 -10 -11 -11 -10 -10 -10 -11 -11
-10 -10 -10 -10 -10 -10 -10 -10 -10 -10 -10 -10 -10 -10 -10 -10 -10 -10 -10 -11 -11 -11 -11 -11 -11 -11 -11 -10 -11 -11 -11 -10 -10 -10 -11 -11 -10 -10 -10 -10 -11 -11 -10 -10 -10
-10 -10 -11 -11 -11 -11 -11 -11 -10 -10 -10 -10 -10 -10 -10 -10 -10 -11 -11 -11 -11 -11 -11 -10 -11 -11 -11 -10 -11 -12 -11 -10 -10 -10 -10 -10 -10 -10 -10 -10 -10 -10 -10 -11 -10
-11 -11 -11 -11 -11 -11 -11 -11 -11 -11 -10 -10 -10 -10 -10 -10 -10 -11 -11 -11 -11 -11 -11 -11 -10 -10 -11 -11 -11 -11 -11 -10 -10 -11 -11 -11 -10 -9 -10 -10 -10 -10 -10 -11 -10
-11 -11 -11 -11 -11 -11 -11 -11 -11 -11 -10 -10 -10 -10 -10 -11 -10 -11 -11 -11 -11 -11 -11 -11 -10 -11 -12 -11 -11 -11 -11 -10 -10 -11 -11 -10 -9 -9 -9 -9 -9 -10 -10 -11 -10
-12 -11 -11 -11 -11 -11 -11 -12 -11 -11 -10 -10 -10 -10 -11 -11 -10 -11 -11 -11 -11 -11 -11 -11 -11 -11 -11 -11 -12 -11 -11 -11 -11 -11 -10 -10 -8 -9 -9 -9 -9 -10 -10 -10 -10
-12 -12 -12 -12 -12 -12 -12 -12 -11 -11 -10 -10 -10 -10 -11 -11 -10 -11 -11 -11 -11 -11 -11 -11 -11 -11 -11 -11 -12 -10 -12 -11 -11 -11 -10 -10 -8 -8 -8 -9 -9 -10 -10 -10 -10
-13 -13 -13 -12 -13 -13 -13 -13 -13 -12 -11 -11 -10 -10 -10 -10 -11 -11 -12 -12 -12 -12 -12 -11 -12 -12 -12 -12 -13 -11 -11 -12 -11 -11 -10 -9 -10 -7 -8 -8 -9 -9 -10 -11 -11
-14 -13 -13 -13 -13 -13 -13 -13 -14 -13 -11 -12 -12 -12 -12 -11 -11 -11 -11 -11 -12 -12 -12 -11 -12 -12 -12 -13 -13 -12 -12 -11 -12 -11 -10 -10 -10 -6 -8 -9 -9 -10 -10 -10 -11
-14 -13 -13 -13 -13 -14 -13 -13 -13 -12 -12 -12 -12 -12 -12 -12 -12 -12 -13 -13 -12 -13 -13 -13 -11 -12 -13 -13 -14 -14 -13 -12 -12 -12 -10 -11 -11 -7 -9 -9 -10 -10 -10 -10 -11
-14 -14 -13 -13 -13 -13 -14 -15 -14 -11 -12 -12 -12 -12 -12 -13 -12 -13 -13 -13 -15 -16 -15 -14 -12 -13 -13 -14 -14 -14 -15 -14 -14 -12 -11 -11 -8 -8 -10 -10 -11 -10 -11 -11 -11
-15 -14 -13 -14 -13 -14 -14 -15 -12 -13 -13 -14 -14 -12 -11 -11 -13 -13 -13 -13 -15 -15 -16 -15 -14 -14 -14 -14 -14 -14 -15 -15 -16 -14 -14 -10 -9 -9 -10 -11 -10 -10 -11 -12 -12
-16 -16 -15 -14 -14 -14 -14 -13 -13 -13 -14 -15 -14 -13 -13 -13 -15 -15 -14 -14 -14 -15 -16 -15 -15 -13 -14 -15 -14 -14 -14 -15 -15 -15 -14 -11 -11 -10 -11 -11 -12 -12 -12 -13 -14
-17 -16 -15 -16 -16 -16 -15 -14 -13 -14 -16 -16 -15 -15 -14 -15 -15 -16 -16 -14 -15 -15 -15 -16 -16 -13 -15 -14 -15 -15 -15 -15 -15 -15 -15 -15 -12 -11 -12 -12 -13 -14 -13 -14 -15
-16 -16 -16 -16 -16 -16 -15 -15 -15 -14 -15 -15 -16 -16 -16 -16 -16 -16 -15 -16 -16 -16 -16 -16 -17 -16 -16 -16 -16 -16 -16 -16 -16 -15 -16 -16 -15 -12 -13 -13 -14 -14 -14 -14 -14
-17 -17 -16 -16 -17 -16 -16 -16 -16 -16 -15 -17 -17 -17 -18 -18 -18 -16 -16 -15 -16 -17 -17 -16 -17 -18 -18 -18 -17 -18 -18 -18 -18 -17 -17 -16 -15 -13 -14 -14 -14 -13 -14 -14 -14
-18 -18 -17 -17 -17 -17 -17 -17 -17 -16 -16 -16 -18 -19 -19 -19 -17 -17 -16 -15 -16 -18 -18 -19 -17 -17 -19 -18 -17 -18 -17 -18 -18 -18 -17 -18 -16 -16 -14 -13 -13 -15 -15 -15 -14
-19 -19 -19 -18 -18 -18 -19 -19 -18 -18 -18 -17 -18 -19 -19 -20 -19 -18 -18 -18 -17 -17 -18 -20 -19 -19 -18 -17 -17 -17 -17 -16 -19 -18 -18 -17 -17 -16 -16 -15 -15 -15 -15 -15 -16
-20 -20 -20 -20 -21 -21 -20 -19 -20 -19 -20 -19 -19 -19 -20 -20 -20 -20 -20 -20 -19 -17 -18 -19 -19 -20 -20 -19 -18 -18 -18 -18 -17 -15 -17 -18 -19 -15 -15 -16 -16 -16 -16 -17 -17
-22 -21 -21 -21 -21 -22 -21 -22 -22 -21 -21 -22 -21 -21 -21 -20 -21 -22 -22 -21 -19 -20 -20 -20 -21 -20 -21 -20 -20 -21 -18 -17 -17 -17 -16 -19 -17 -19 -18 -17 -17 -17 -17 -18 -17
Height
5882 5882 5882 5882 5882 5882 5882 5882 5883 5883 5883 5883 5884 5884 5884 5883 5883 5883 5882 5883 5882 5881 5880 5879 5878 5876 5875 5873 5872 5872 5871 5869 5867 5867 5866 5864 5863 5862 5860 5859 5858 5858 5856 5855 5853
5879 5878 5878 5878 5878 5878 5879 5879 5879 5879 5880 5880 5879 5880 5880 5881 5880 5879 5880 5879 5879 5878 5877 5876 5875 5874 5873 5872 5870 5869 5868 5866 5865 5863 5863 5862 5861 5860 5858 5856 5856 5855 5854 5853 5851
5874 5874 5874 5874 5874 5875 5875 5874 5875 5875 5875 5876 5876 5875 5876 5876 5877 5876 5875 5875 5874 5874 5873 5872 5871 5870 5869 5869 5867 5866 5865 5862 5861 5859 5858 5858 5857 5856 5855 5853 5852 5852 5850 5849 5848
5868 5868 5869 5869 5869 5869 5869 5869 5869 5870 5870 5870 5870 5870 5870 5871 5872 5870 5870 5870 5869 5868 5867 5866 5865 5864 5864 5864 5862 5862 5859 5858 5857 5855 5853 5851 5852 5851 5850 5847 5848 5847 5847 5845 5843
5861 5861 5862 5862 5863 5863 5863 5863 5863 5863 5864 5864 5864 5864 5865 5867 5865 5863 5864 5863 5863 5862 5861 5859 5858 5857 5858 5856 5854 5856 5853 5852 5850 5849 5847 5845 5844 5843 5846 5839 5840 5838 5839 5839 5838
5855 5855 5855 5855 5855 5856 5856 5856 5857 5857 5856 5857 5857 5857 5858 5862 5859 5857 5856 5856 5855 5854 5853 5852 5850 5848 5850 5849 5845 5847 5845 5845 5845 5841 5839 5838 5837 5835 5837 5832 5832 5830 5830 5829 5829
5847 5847 5848 5848 5848 5849 5849 5849 5849 5850 5850 5849 5849 5848 5851 5854 5852 5850 5849 5848 5849 5847 5846 5844 5842 5840 5840 5840 5839 5836 5835 5836 5839 5832 5828 5826 5831 5829 5826 5822 5825 5822 5821 5821 5820
5839 5840 5840 5840 5841 5842 5841 5840 5843 5843 5842 5841 5841 5839 5842 5846 5844 5843 5841 5841 5841 5840 5839 5838 5834 5833 5832 5832 5829 5826 5824 5824 5832 5824 5819 5816 5820 5826 5817 5814 5815 5815 5814 5811 5810
5830 5830 5831 5831 5831 5832 5832 5830 5832 5833 5834 5833 5832 5831 5833 5837 5837 5834 5833 5834 5833 5833 5831 5830 5826 5824 5826 5823 5820 5820 5813 5813 5820 5817 5808 5807 5808 5815 5812 5805 5806 5808 5805 5802 5800
5820 5821 5822 5821 5821 5822 5822 5821 5821 5822 5823 5823 5821 5823 5824 5826 5827 5827 5826 5825 5825 5825 5824 5822 5815 5813 5821 5815 5810 5809 5801 5805 5807 5811 5799 5794 5795 5802 5803 5797 5797 5799 5797 5794 5791
5811 5811 5811 5811 5810 5811 5813 5812 5813 5811 5812 5814 5811 5812 5810 5813 5815 5818 5818 5817 5817 5815 5815 5810 5804 5807 5815 5805 5802 5798 5796 5792 5799 5802 5786 5784 5780 5790 5794 5792 5790 5789 5788 5786 5783
5800 5801 5801 5801 5801 5801 5801 5801 5800 5799 5798 5801 5801 5799 5800 5802 5803 5808 5808 5808 5806 5805 5803 5800 5791 5804 5801 5797 5793 5789 5787 5784 5784 5791 5777 5772 5766 5773 5781 5784 5784 5781 5780 5777 5775
5789 5789 5790 5791 5790 5790 5790 5789 5789 5788 5784 5789 5793 5789 5791 5793 5794 5798 5797 5796 5795 5792 5794 5788 5786 5788 5788 5786 5782 5782 5776 5776 5770 5773 5768 5763 5750 5762 5769 5771 5774 5775 5771 5768 5766
5777 5777 5779 5778 5780 5779 5779 5778 5777 5777 5774 5771 5780 5784 5784 5782 5780 5784 5784 5782 5779 5780 5781 5772 5781 5778 5774 5771 5775 5766 5773 5766 5761 5757 5747 5754 5730 5748 5758 5758 5762 5763 5762 5760 5757
5764 5765 5767 5765 5766 5766 5767 5765 5765 5768 5763 5760 5759 5766 5772 5774 5772 5771 5770 5769 5768 5768 5767 5767 5765 5766 5764 5763 5759 5758 5757 5755 5753 5747 5740 5734 5733 5737 5741 5743 5749 5748 5747 5746 5746
5751 5752 5752 5754 5753 5752 5755 5757 5758 5761 5746 5751 5750 5752 5752 5753 5755 5754 5754 5755 5755 5753 5751 5754 5752 5751 5752 5750 5748 5748 5745 5740 5738 5736 5727 5730 5732 5716 5729 5731 5733 5734 5734 5732 5731
5737 5739 5740 5741 5742 5740 5742 5743 5745 5746 5744 5743 5740 5739 5739 5738 5735 5734 5738 5740 5741 5738 5737 5738 5738 5739 5738 5736 5736 5736 5732 5727 5721 5719 5718 5722 5718 5709 5710 5718 5720 5720 5721 5718 5716
5722 5722 5725 5725 5727 5726 5727 5729 5729 5729 5729 5731 5729 5727 5726 5727 5724 5721 5721 5721 5724 5725 5721 5719 5722 5725 5726 5723 5722 5719 5719 5712 5704 5707 5707 5708 5697 5700 5701 5702 5705 5704 5705 5704 5703
5705 5706 5709 5710 5709 5708 5708 5708 5716 5719 5716 5713 5712 5712 5714 5712 5708 5704 5705 5708 5709 5712 5705 5703 5701 5706 5707 5708 5706 5701 5700 5706 5694 5696 5690 5691 5692 5692 5692 5694 5691 5689 5689 5689 5688
5685 5687 5689 5689 5689 5689 5687 5691 5699 5703 5701 5697 5696 5697 5700 5699 5692 5687 5688 5696 5692 5691 5690 5683 5679 5691 5688 5690 5688 5683 5689 5686 5680 5678 5673 5677 5677 5681 5684 5681 5678 5676 5675 5677 5678
5667 5668 5675 5670 5668 5667 5667 5676 5683 5689 5684 5678 5680 5676 5684 5685 5678 5675 5673 5680 5674 5672 5672 5666 5661 5677 5669 5672 5674 5673 5668 5667 5664 5659 5652 5655 5665 5676 5669 5667 5662 5663 5664 5663 5664
5647 5648 5656 5650 5647 5648 5651 5657 5662 5668 5665 5659 5658 5659 5661 5664 5657 5655 5658 5662 5670 5659 5655 5654 5641 5640 5650 5657 5656 5652 5650 5649 5641 5644 5637 5631 5633 5665 5659 5656 5652 5645 5648 5646 5648
5624 5627 5632 5629 5623 5630 5633 5635 5636 5645 5647 5637 5634 5638 5640 5638 5632 5636 5638 5653 5653 5643 5639 5646 5628 5622 5626 5634 5635 5634 5635 5634 5629 5623 5619 5615 5617 5652 5643 5643 5642 5634 5633 5630 5634
5606 5605 5610 5608 5611 5611 5609 5609 5611 5621 5624 5623 5614 5614 5615 5616 5618 5607 5614 5626 5634 5625 5620 5619 5606 5606 5606 5615 5624 5614 5615 5619 5615 5605 5604 5600 5605 5622 5630 5629 5628 5621 5620 5619 5616
5586 5585 5586 5585 5592 5593 5590 5589 5592 5596 5599 5604 5594 5594 5596 5591 5593 5591 5596 5603 5604 5606 5601 5593 5582 5580 5582 5587 5596 5594 5596 5598 5595 5593 5583 5587 5585 5598 5610 5612 5608 5604 5606 5604 5601
5565 5566 5565 5570 5569 5569 5570 5571 5569 5575 5572 5579 5573 5575 5573 5571 5574 5570 5576 5577 5575 5584 5575 5576 5558 5562 5555 5564 5569 5566 5571 5568 5569 5573 5565 5563 5559 5581 5586 5587 5586 5589 5591 5583 5574
5547 5545 5543 5553 5549 5547 5556 5548 5548 5546 5553 5550 5555 5551 5553 5556 5551 5552 5557 5561 5562 5560 5556 5555 5549 5541 5528 5539 5536 5526 5552 5555 5547 5546 5546 5536 5543 5555 5554 5556 5560 5563 5561 5558 5561
Wind_Speed
20 21 20 20 18 18 18 19 18 17 19 18 17 18 16 16 16 16 16 15 16 15 15 15 15 14 15 15 15 15 15 14 15 13 13 14 15 16 17 17 18 18 17 16 16
26 26 27 26 26 24 24 23 23 23 23 23 23 22 22 21 21 22 21 21 21 22 22 21 20 20 20 19 20 19 19 19 19 19 17 16 17 17 18 19 20 19 20 16 17
31 32 32 31 31 31 31 30 29 27 27 27 27 27 26 25 25 25 26 27 28 28 29 28 28 28 27 25 26 24 25 26 24 24 24 22 21 22 21 22 24 21 22 21 19
35 34 34 35 35 34 34 32 32 31 31 31 30 30 30 29 28 29 29 30 31 32 33 34 35 35 34 34 34 31 31 31 30 31 30 30 26 26 25 25 27 25 23 22 24
34 34 34 34 35 34 34 34 35 35 34 34 33 34 33 30 30 32 32 31 32 34 35 36 37 38 37 38 38 36 36 34 35 36 36 37 34 35 24 29 31 31 30 27 25
33 33 33 33 32 33 33 34 34 35 35 35 36 36 35 32 33 34 34 34 34 35 37 39 39 40 39 39 41 40 40 39 37 37 41 40 38 41 32 35 33 33 32 32 32
32 33 34 34 34 34 35 37 36 37 37 37 37 38 36 33 33 35 35 35 36 37 36 38 40 41 41 39 41 43 43 40 36 41 43 42 38 36 38 41 36 36 34 35 34
37 37 37 39 40 40 40 43 41 40 40 40 40 41 36 33 35 38 39 37 37 37 38 38 41 40 38 39 41 41 40 38 29 37 40 41 38 29 36 39 37 35 33 36 36
42 42 42 43 43 43 43 45 44 42 43 44 44 45 41 37 36 39 40 39 39 39 39 40 43 43 38 40 40 36 41 41 32 35 41 41 39 23 27 34 31 26 28 30 31
47 46 46 46 46 45 45 46 46 47 46 46 49 49 49 43 40 40 40 40 40 40 41 42 46 47 38 41 42 39 47 43 40 35 46 49 45 34 32 35 33 28 27 27 31
50 50 49 49 48 47 46 47 48 49 48 47 51 50 51 48 45 42 40 41 41 43 42 46 51 48 37 44 46 49 49 52 43 38 53 53 54 40 34 33 33 32 30 29 30
49 50 50 51 49 48 48 48 49 51 52 48 49 52 51 49 49 43 41 42 42 43 45 47 52 44 44 47 51 53 54 54 53 45 54 56 58 51 40 34 30 28 25 27 32
49 48 49 49 49 50 50 49 48 51 56 51 47 52 53 51 50 46 46 45 44 46 44 49 50 47 46 48 51 51 55 55 57 52 55 58 63 52 44 38 33 30 33 34 33
51 49 50 52 51 52 52 53 50 51 54 57 53 49 49 52 54 48 46 47 47 43 42 51 43 43 46 48 44 51 44 49 53 54 60 53 67 53 45 44 38 37 35 33 33
52 53 48 43 55 51 52 53 51 52 53 56 56 51 47 48 48 48 46 46 47 46 47 46 48 48 49 47 48 52 50 50 52 56 60 63 63 55 50 44 39 36 38 39 36
53 52 46 49 49 51 54 52 50 53 61 58 58 57 54 52 51 52 50 48 47 46 49 47 47 50 50 48 48 48 52 54 54 56 60 57 58 56 52 51 44 40 38 39 39
50 49 53 56 55 53 58 62 55 57 62 60 59 59 60 58 58 59 56 53 54 56 51 47 48 48 50 51 48 46 51 56 59 60 61 58 59 55 58 52 50 47 44 45 43
61 62 62 62 57 62 61 57 60 66 60 61 66 62 61 60 57 60 65 61 60 56 59 57 55 54 51 50 49 52 52 58 58 60 61 61 60 57 61 59 53 53 53 50 49
62 68 67 70 68 68 65 58 66 59 62 62 61 67 64 65 67 64 64 62 62 62 64 64 64 60 58 55 55 59 60 53 58 59 63 64 66 56 60 60 63 56 59 54 50
70 71 71 75 78 77 74 76 72 70 66 64 68 67 65 64 64 65 70 67 67 66 62 66 67 65 61 59 62 63 60 59 62 63 64 64 66 67 61 61 63 63 62 51 28
74 75 72 76 80 82 83 79 77 75 72 70 71 74 73 68 64 62 56 61 60 57 62 66 68 65 62 60 57 58 58 60 63 66 70 72 67 64 64 65 65 63 63 60 57
76 77 76 80 80 84 86 84 82 80 82 85 84 79 80 77 82 82 76 64 60 53 57 57 63 60 55 52 57 62 63 63 66 69 73 76 75 58 61 65 69 71 63 62 60
75 76 76 79 82 81 82 80 81 80 80 80 78 76 75 79 82 85 87 81 72 76 71 61 62 60 50 44 42 46 47 51 55 66 73 73 74 55 61 62 63 69 67 65 63
76 77 79 79 78 78 78 80 82 81 82 81 76 72 73 71 80 83 85 87 82 80 80 74 72 79 70 68 65 70 69 70 56 50 56 58 58 47 52 57 59 62 62 63 65
73 74 76 78 80 77 76 78 79 78 79 78 81 78 76 75 76 80 81 79 77 78 80 78 87 93 93 94 90 93 92 87 75 81 86 84 86 62 46 41 44 52 58 61 63
72 73 73 74 72 73 77 80 77 77 77 80 82 82 81 77 72 72 64 58 69 76 79 79 86 84 86 87 90 96 93 93 100 100 93 81 74 72 76 77 78 63 50 51 45
69 73 73 71 72 71 70 68 70 73 74 73 76 78 80 79 79 75 67 62 56 55 67 74 67 78 77 75 73 77 85 86 89 88 92 84 87 67 66 67 70 76 69 66 67
Wind_Direction
256 267 273 274 274 277 279 282 286 286 288 288 286 288 288 287 290 292 294 294 295 296 298 297 299 303 306 310 311 316 318 323 322 321 320 325 323 322 323 322 322 328 328 316 313
258 264 270 275 278 278 278 278 278 280 282 284 287 285 283 283 284 284 286 286 287 288 288 288 290 291 293 297 300 306 312 312 315 318 319 318 319 320 320 319 322 330 325 322 315
261 264 267 271 274 277 279 279 279 277 277 279 280 283 286 285 286 286 284 286 286 286 286 288 289 289 289 292 293 296 301 302 309 308 309 309 309 310 314 309 312 315 315 317 317
262 265 267 270 273 275 276 276 278 280 279 277 277 278 280 285 287 285 286 287 288 288 287 287 287 286 289 291 291 294 296 297 300 303 305 303 303 300 306 300 302 302 304 303 306
262 264 266 268 270 272 274 275 277 278 278 279 278 278 278 280 282 284 285 285 284 284 285 286 287 286 288 290 289 291 291 293 294 294 294 295 299 296 303 292 297 294 294 291 292
266 267 266 267 268 269 271 274 275 277 278 279 280 279 279 281 280 282 284 283 283 283 283 284 285 287 288 289 289 289 287 289 294 291 289 291 290 294 293 290 289 288 288 290 290
261 264 268 269 269 270 271 271 270 272 273 274 275 276 278 283 283 283 281 282 283 284 285 286 286 288 288 287 288 288 287 289 292 292 294 290 288 291 286 285 284 284 287 286 286
260 261 261 264 267 269 270 271 271 272 271 270 271 272 274 276 282 283 282 282 283 284 285 287 287 287 290 293 292 291 292 290 291 292 293 294 292 287 280 282 284 286 289 287 287
259 260 262 263 264 265 267 268 269 268 269 269 269 270 270 273 275 277 280 284 284 285 285 287 286 288 290 293 293 297 291 289 293 293 294 294 298 276 279 287 291 294 287 287 284
261 262 263 265 267 267 268 269 270 269 268 268 269 272 274 274 273 274 278 280 283 286 287 289 285 283 291 294 293 289 288 289 292 296 292 292 297 301 294 288 290 295 294 291 285
263 264 265 265 265 267 268 268 269 269 269 268 270 269 272 274 274 273 276 279 280 280 283 281 280 286 298 287 286 285 286 288 292 291 288 289 289 292 291 289 288 290 296 289 281
266 267 267 266 266 267 267 266 268 269 268 267 268 272 271 274 275 277 275 276 276 279 277 280 280 291 284 282 284 285 287 286 287 290 284 287 288 290 290 291 290 291 288 284 284
265 264 266 269 270 269 269 268 268 270 272 269 269 273 276 276 278 278 280 278 279 276 277 275 280 281 280 281 280 283 284 290 289 287 283 288 284 287 289 291 291 291 291 286 284
264 262 268 270 271 270 270 269 269 270 275 277 273 271 275 277 281 283 276 275 274 275 274 272 277 277 279 277 282 276 280 280 283 284 286 280 285 286 293 291 291 293 287 281 287
263 262 265 276 267 267 267 268 267 268 274 277 281 282 282 284 282 278 274 273 275 275 274 278 277 275 272 276 275 281 279 276 276 278 281 281 287 297 294 293 294 291 294 292 285
258 255 258 271 273 268 271 276 275 271 269 275 279 283 283 283 284 280 279 275 272 271 273 276 276 275 277 275 272 274 275 276 276 276 273 279 288 291 295 294 297 296 293 292 293
261 264 270 271 271 271 271 272 273 276 276 274 277 281 279 282 281 283 282 279 277 280 278 278 274 270 271 274 275 276 274 273 270 269 274 280 280 288 290 293 293 294 292 294 292
265 270 274 268 268 267 270 267 266 278 277 271 274 275 278 282 281 280 283 284 283 282 280 278 273 274 271 267 269 268 270 267 272 274 276 274 274 285 289 292 291 292 295 292 292
272 268 268 267 268 266 263 262 266 268 269 273 272 273 268 269 274 275 274 276 280 280 279 281 275 274 271 271 268 266 267 276 273 268 271 273 276 275 281 288 291 291 291 296 298
273 272 270 268 267 266 266 265 264 262 264 266 266 265 265 269 274 277 275 278 281 283 284 281 278 277 274 271 270 268 273 272 272 275 273 267 272 279 283 282 285 290 292 295 282
269 268 268 268 270 271 269 266 267 264 266 267 267 268 265 265 267 274 276 271 277 282 286 283 282 277 271 270 271 269 265 267 268 269 273 276 270 273 277 280 282 287 288 288 290
269 268 269 267 266 268 270 272 269 266 271 275 277 276 274 271 268 268 267 272 270 280 281 280 281 278 275 279 269 266 267 267 268 274 267 265 267 270 272 277 280 279 282 282 282
270 270 268 268 268 269 270 271 271 271 271 277 276 275 274 276 275 272 274 272 267 274 278 274 273 280 276 274 271 275 268 286 274 272 273 273 270 269 270 271 275 282 277 277 283
272 271 271 270 270 273 275 274 274 272 271 273 274 272 271 267 272 273 276 276 276 273 275 274 272 273 272 271 269 276 274 283 280 265 272 279 282 280 269 271 268 269 272 275 274
273 274 273 272 273 273 272 273 274 275 274 272 274 275 276 274 273 274 278 278 274 273 271 265 264 270 272 274 273 277 282 281 273 278 279 281 284 282 280 278 281 272 271 274 276
274 273 273 274 274 273 272 274 275 274 275 273 273 274 274 273 278 279 279 285 284 276 275 272 271 274 273 275 277 278 279 280 281 281 288 289 286 280 288 290 282 278 276 274 263
275 274 275 273 274 274 275 274 274 274 272 273 272 272 272 273 272 272 266 261 265 272 273 277 284 287 281 285 285 276 277 279 282 283 287 287 290 286 278 276 281 280 274 265 266